Tracking 32577 objects as of 14-Dec-2025
HD Live streaming from Space Station
objects crossing your sky now

OVZON-3

Track OVZON-3 now!
OVZON-3 is classified as:


NORAD ID: 58698
Int'l Code: 2024-003A
Perigee: 35,792.8 km
Apogee: 35,793.9 km
Inclination: 0.0 °
Period: 1,436.1 minutes
Semi major axis: 42164 km
RCS: Unknown
Launch date: January 3, 2024
Source: Sweden (SWED)
Launch site: AIR FORCE EASTERN TEST RANGE (AFETR)
Your satellite tracking list
Your tracking list is empty




NASA's NSSDC Master Catalog

Two Line Element Set (TLE):
1 58698U 24003A   25348.21423642  .00000069  00000-0  00000-0 0  9996
2 58698   0.0127 264.1845 0000124 114.3997 201.3705  1.00273270  5587
Source of the keplerian elements: AFSPC